Weather History for KOJC - May, 2013

Change the Weather History Date:

Thursday, May 9, 2013

  Actual Average Record
Temperature  
Mean Temperature 66 °F 62 °F  
Max Temperature 74 °F 72 °F 89 °F (1963)
Min Temperature 58 °F 53 °F 37 °F (1954)
Degree Days  
Heating Degree Days 0 4  
Month to date heating degree days 110 44  
Since 1 July heating degree days 5040 4875  
Cooling Degree Days 1 2  
Month to date cooling degree days 1 10  
Year to date cooling degree days 12 28  
Growing Degree Days 15 (Base 50)    
Moisture  
Dew Point 57 °F    
Average Humidity 79    
Maximum Humidity 100    
Minimum Humidity 57    
Precipitation  
Precipitation 0.04 in 0.17 in 1.32 in (1993)
Month to date precipitation 1.34 1.67  
Year to date precipitation 10.63 10.98  
Sea Level Pressure  
Sea Level Pressure 29.88 in    
Wind  
Wind Speed 5 mph (WNW)    
Max Wind Speed 16 mph    
Max Gust Speed 24 mph    
Visibility 9 miles    
Events Rain , Thunderstorm    
T = Trace of Precipitation, MM = Missing Value Source: NWS Daily Summary

Daily Weather History Graph

Daily Weather History Graph

Search for Another Location

Airport or City:

Trip Planner

Search our weather history database for the weather conditions in past years. The results will help you decide how hot, cold, wet, or windy it might be!

Date:

Astronomy

May. 09, 2013 Rise Set
Actual Time 6:12 AM CDT 8:19 PM CDT
Civil Twilight 5:42 AM CDT 8:48 PM CDT
Nautical Twilight 5:06 AM CDT 9:25 PM CDT
Astronomical Twilight 4:27 AM CDT 10:04 PM CDT
Moon 5:56 AM CDT (5/9) 8:15 PM CDT (5/9)
Length of Visible Light 15h 06m
Length of Day
14h 07m
Waning Crescent, 0% of the Moon is Illuminated
May 9
Waning Crescent
May 9
New
May 17
First Quarter
May 24
Full
May 31
Last Quarter

Hourly Weather History & Observations

Time (CDT) Temp. Dew Point Humidity Pressure Visibility Wind Dir Wind Speed Gust Speed Precip Events Conditions
12:53 AM 59.0 °F 57.0 °F 93% 29.90 in 10.0 mi South 3.5 mph - 0.06 in Rain , Thunderstorm Light Rain
1:00 AM 59.0 °F 57.2 °F 94% 29.92 in 10.0 mi South 3.5 mph - 0.00 in   Overcast
1:08 AM 59.0 °F 57.2 °F 94% 29.92 in 7.0 mi Variable 3.5 mph - 0.00 in Rain , Thunderstorm Light Thunderstorms and Rain
1:48 AM 60.8 °F 57.2 °F 88% 29.88 in 10.0 mi Calm Calm - 0.04 in   Overcast
1:53 AM 60.1 °F 57.9 °F 93% 29.86 in 10.0 mi Calm Calm - 0.04 in Rain Light Rain
2:53 AM 60.1 °F 57.9 °F 93% 29.88 in 10.0 mi NW 3.5 mph - 0.00 in   Overcast
3:53 AM 59.0 °F 57.9 °F 96% 29.89 in 9.0 mi Calm Calm - N/A   Mostly Cloudy
4:53 AM 59.0 °F 57.0 °F 93% 29.84 in 8.0 mi SE 4.6 mph - N/A   Clear
5:53 AM 57.9 °F 57.0 °F 97% 29.84 in 5.0 mi Calm Calm - N/A   Scattered Clouds
6:53 AM 57.9 °F 55.9 °F 93% 29.85 in 4.0 mi WNW 3.5 mph - N/A   Clear
7:53 AM 59.0 °F 57.0 °F 93% 29.85 in 5.0 mi South 3.5 mph - N/A   Clear
8:53 AM 60.1 °F 57.9 °F 93% 29.88 in 6.0 mi West 4.6 mph - N/A   Mostly Cloudy
9:53 AM 62.1 °F 57.9 °F 86% 29.88 in 10.0 mi WSW 5.8 mph - N/A   Clear
10:53 AM 66.9 °F 59.0 °F 76% 29.88 in 10.0 mi WSW 9.2 mph - N/A   Clear
12:53 PM 72.0 °F 57.0 °F 59% 29.88 in 10.0 mi West 11.5 mph 16.1 mph N/A   Mostly Cloudy
1:53 PM 72.0 °F 55.9 °F 57% 29.87 in 10.0 mi Variable 6.9 mph - N/A   Mostly Cloudy
2:53 PM 73.0 °F 57.0 °F 57% 29.85 in 10.0 mi WNW 5.8 mph - N/A   Mostly Cloudy
3:53 PM 72.0 °F 55.0 °F 55% 29.85 in 10.0 mi NW 5.8 mph - N/A   Overcast
4:53 PM 71.1 °F 57.9 °F 63% 29.86 in 10.0 mi NW 8.1 mph - N/A   Mostly Cloudy
5:53 PM 72.0 °F 57.9 °F 61% 29.86 in 10.0 mi NNW 8.1 mph - N/A   Mostly Cloudy
6:24 PM 71.6 °F 57.2 °F 60% 29.88 in 10.0 mi NNW 8.1 mph - N/A Thunderstorm Thunderstorm
6:53 PM 70.0 °F 57.9 °F 65% 29.87 in 10.0 mi North 10.4 mph - N/A Thunderstorm Mostly Cloudy
7:53 PM 69.1 °F 57.0 °F 65% 29.87 in 10.0 mi North 8.1 mph - N/A   Overcast
9:53 PM 64.0 °F 55.9 °F 75% 29.90 in 10.0 mi North 5.8 mph - N/A   Clear
10:53 PM 60.1 °F 55.0 °F 83% 29.93 in 10.0 mi Calm Calm - N/A   Clear